When you browse on this site, cookies collect data to enhance your experience and personalize the content and advertising you see.
Visit our Privacy Policy to learn more. By continuing to use the site, you agree to this use of cookies and data.
  • In France
  • List of Countries
  • For 7 days
  • Water Temperature
  • Satellite Maps
  • Weather Map
  • Weather Widgets
  • user-avatar
    Login

    Hourly Weather Saitkulovo

    Today, 19 February, Tuesday

    Time Temperature Precipitation Wind Pressure Humidity
    00:00 -11°C° 0.3 mm 5 mps 691 mmHg 96%
    01:00 -11°C° 0.3 mm 5 mps 691 mmHg 96%
    02:00 -12°C° 0.3 mm 5 mps 691 mmHg 95%
    03:00 -12°C° 0.3 mm 5 mps 691 mmHg 95%
    04:00 -12°C° 0.3 mm 5 mps 691 mmHg 95%
    05:00 -12°C° 0.3 mm 5 mps 692 mmHg 95%
    06:00 -12°C° 0.3 mm 5 mps 692 mmHg 94%
    07:00 -13°C° 0.3 mm 5 mps 692 mmHg 94%
    08:00 -12°C° 0.2 mm 5 mps 693 mmHg 94%
    09:00 -12°C° 0.2 mm 5 mps 694 mmHg 93%
    10:00 -11°C° 0.2 mm 5 mps 695 mmHg 93%
    11:00 -9°C° 0.1 mm 4 mps 696 mmHg 92%
    12:00 -9°C° 0.1 mm 4 mps 697 mmHg 91%
    13:00 -8°C° 0.1 mm 4 mps 698 mmHg 90%
    14:00 -8°C° 0.2 mm 4 mps 698 mmHg 91%
    15:00 -7°C° 0.2 mm 3 mps 699 mmHg 91%
    16:00 -7°C° 0.2 mm 3 mps 700 mmHg 92%
    17:00 -6°C° 0.2 mm 2 mps 701 mmHg 93%
    18:00 -7°C° 0.2 mm 2 mps 701 mmHg 95%
    19:00 -8°C° 0.2 mm 2 mps 702 mmHg 96%
    20:00 -8°C° 0.1 mm 1 mps 703 mmHg 96%
    21:00 -8°C° 0.1 mm 1 mps 703 mmHg 96%
    22:00 -9°C° 0.1 mm 1 mps 704 mmHg 96%
    23:00 -10°C° 0 mm 1 mps 704 mmHg 96%

    Tomorrow, 20 February, Wednesday

    Time Temperature Precipitation Wind Pressure Humidity
    00:00 -11°C° 0 mm 1 mps 704 mmHg 95%
    01:00 -12°C° 0 mm 1 mps 704 mmHg 95%
    02:00 -12°C° 0.1 mm 1 mps 705 mmHg 95%
    03:00 -12°C° 0.1 mm 1 mps 705 mmHg 95%
    04:00 -12°C° 0.1 mm 1 mps 706 mmHg 96%
    05:00 -13°C° 0.1 mm 1 mps 706 mmHg 96%
    06:00 -13°C° 0.1 mm 1 mps 707 mmHg 96%
    07:00 -14°C° 0.1 mm 1 mps 707 mmHg 96%
    08:00 -13°C° 0 mm 1 mps 708 mmHg 94%
    09:00 -12°C° 0 mm 1 mps 708 mmHg 93%
    10:00 -12°C° 0 mm 1 mps 709 mmHg 92%
    11:00 -10°C° 0 mm 1 mps 709 mmHg 90%
    12:00 -9°C° 0 mm 1 mps 710 mmHg 89%
    13:00 -8°C° 0 mm 1 mps 710 mmHg 87%
    14:00 -8°C° 0 mm 1 mps 710 mmHg 87%
    15:00 -8°C° 0 mm 1 mps 711 mmHg 87%
    16:00 -8°C° 0 mm 1 mps 711 mmHg 87%
    17:00 -10°C° 0 mm 1 mps 711 mmHg 89%
    18:00 -11°C° 0 mm 1 mps 711 mmHg 91%
    19:00 -13°C° 0 mm 1 mps 711 mmHg 92%
    20:00 -14°C° 0 mm 1 mps 711 mmHg 92%
    21:00 -15°C° 0 mm 1 mps 711 mmHg 92%
    22:00 -17°C° 0 mm 2 mps 711 mmHg 92%
    23:00 -17°C° 0 mm 2 mps 711 mmHg 91%

    Day after tomorrow, 21 February, Thursday

    Time Temperature Precipitation Wind Pressure Humidity
    00:00 -17°C° 0 mm 2 mps 711 mmHg 90%
    01:00 -17°C° 0 mm 2 mps 711 mmHg 89%
    02:00 -18°C° 0 mm 2 mps 710 mmHg 91%
    03:00 -18°C° 0 mm 2 mps 710 mmHg 93%
    04:00 -19°C° 0 mm 2 mps 710 mmHg 95%
    05:00 -19°C° 0 mm 2 mps 710 mmHg 95%
    06:00 -18°C° 0 mm 2 mps 710 mmHg 94%
    07:00 -18°C° 0 mm 2 mps 710 mmHg 94%
    08:00 -17°C° 0 mm 3 mps 710 mmHg 93%
    09:00 -16°C° 0 mm 4 mps 710 mmHg 92%
    10:00 -12°C° 0 mm 4 mps 710 mmHg 90%
    11:00 -12°C° 0 mm 5 mps 711 mmHg 86%
    12:00 -10°C° 0 mm 6 mps 711 mmHg 83%
    13:00 -8°C° 0 mm 6 mps 711 mmHg 79%
    14:00 -8°C° 0 mm 6 mps 711 mmHg 79%
    15:00 -9°C° 0 mm 6 mps 711 mmHg 79%
    16:00 -9°C° 0 mm 6 mps 711 mmHg 80%
    17:00 -10°C° 0 mm 5 mps 711 mmHg 82%
    18:00 -11°C° 0 mm 5 mps 711 mmHg 84%
    19:00 -11°C° 0 mm 4 mps 711 mmHg 87%
    20:00 -11°C° 0 mm 4 mps 711 mmHg 88%
    21:00 -11°C° 0 mm 4 mps 711 mmHg 89%
    22:00 -11°C° 0 mm 4 mps 711 mmHg 91%
    23:00 -10°C° 0 mm 4 mps 711 mmHg 91%

    22 February, Friday

    Time Temperature Precipitation Wind Pressure Humidity
    00:00 -10°C° 0 mm 4 mps 711 mmHg 91%
    01:00 -10°C° 0 mm 4 mps 711 mmHg 92%
    02:00 -9°C° 0 mm 4 mps 711 mmHg 91%
    03:00 -9°C° 0 mm 4 mps 711 mmHg 91%
    04:00 -9°C° 0 mm 4 mps 711 mmHg 91%
    05:00 -10°C° 0 mm 4 mps 711 mmHg 91%
    06:00 -10°C° 0 mm 3 mps 710 mmHg 92%
    07:00 -12°C° 0 mm 3 mps 710 mmHg 92%
    08:00 -11°C° 0 mm 4 mps 710 mmHg 91%
    09:00 -11°C° 0 mm 4 mps 710 mmHg 91%
    10:00 -11°C° 0 mm 5 mps 710 mmHg 90%
    11:00 -11°C° 0.1 mm 5 mps 710 mmHg 91%
    12:00 -10°C° 0.1 mm 5 mps 709 mmHg 91%
    13:00 -10°C° 0.1 mm 6 mps 709 mmHg 92%
    14:00 -9°C° 0.3 mm 6 mps 708 mmHg 92%
    15:00 -9°C° 0.3 mm 6 mps 708 mmHg 92%
    16:00 -9°C° 0.3 mm 6 mps 708 mmHg 93%
    17:00 -9°C° 0.3 mm 6 mps 708 mmHg 92%
    18:00 -9°C° 0.3 mm 6 mps 708 mmHg 92%
    19:00 -8°C° 0.3 mm 6 mps 708 mmHg 92%
    20:00 -8°C° 0.4 mm 6 mps 708 mmHg 92%
    21:00 -6°C° 0.4 mm 5 mps 708 mmHg 92%
    22:00 -6°C° 0.4 mm 5 mps 708 mmHg 92%
    23:00 -7°C° 0.1 mm 5 mps 709 mmHg 91%

    23 February, Saturday

    Time Temperature Precipitation Wind Pressure Humidity
    00:00 -9°C° 0.1 mm 4 mps 709 mmHg 90%
    01:00 -10°C° 0.1 mm 4 mps 710 mmHg 89%
    02:00 -10°C° 0 mm 4 mps 710 mmHg 90%
    03:00 -11°C° 0 mm 4 mps 711 mmHg 91%
    04:00 -11°C° 0 mm 4 mps 711 mmHg 92%
    05:00 -10°C° 0 mm 3 mps 712 mmHg 92%
    06:00 -12°C° 0 mm 3 mps 712 mmHg 92%
    07:00 -12°C° 0 mm 3 mps 712 mmHg 93%
    08:00 -10°C° 0 mm 3 mps 713 mmHg 92%
    09:00 -9°C° 0 mm 3 mps 714 mmHg 91%
    10:00 -8°C° 0 mm 3 mps 714 mmHg 91%
    11:00 -8°C° 0.1 mm 4 mps 714 mmHg 89%
    12:00 -8°C° 0.1 mm 4 mps 715 mmHg 86%
    13:00 -7°C° 0.1 mm 4 mps 715 mmHg 84%
    14:00 -7°C° 0.1 mm 4 mps 715 mmHg 84%
    15:00 -7°C° 0.1 mm 4 mps 715 mmHg 85%
    16:00 -8°C° 0.1 mm 4 mps 715 mmHg 85%
    17:00 -8°C° 0 mm 3 mps 715 mmHg 88%
    18:00 -10°C° 0 mm 3 mps 716 mmHg 90%
    19:00 -10°C° 0 mm 2 mps 716 mmHg 93%
    20:00 -12°C° 0 mm 2 mps 716 mmHg 94%
    21:00 -12°C° 0 mm 2 mps 716 mmHg 94%
    22:00 -12°C° 0 mm 2 mps 717 mmHg 95%
    23:00 -12°C° 0 mm 2 mps 717 mmHg 95%

    24 February, Sunday

    Time Temperature Precipitation Wind Pressure Humidity
    00:00 -12°C° 0 mm 2 mps 717 mmHg 95%
    01:00 -12°C° 0 mm 2 mps 718 mmHg 95%
    02:00 -10°C° 0 mm 2 mps 718 mmHg 95%
    03:00 -12°C° 0 mm 3 mps 718 mmHg 94%
    04:00 -12°C° 0 mm 3 mps 719 mmHg 93%
    05:00 -13°C° 0 mm 3 mps 719 mmHg 94%
    06:00 -13°C° 0 mm 2 mps 719 mmHg 94%
    07:00 -13°C° 0 mm 2 mps 719 mmHg 94%
    08:00 -13°C° 0 mm 2 mps 720 mmHg 93%
    09:00 -12°C° 0 mm 2 mps 720 mmHg 92%
    10:00 -10°C° 0 mm 2 mps 720 mmHg 91%
    11:00 -10°C° 0 mm 3 mps 720 mmHg 90%
    12:00 -9°C° 0 mm 3 mps 721 mmHg 89%
    13:00 -8°C° 0 mm 3 mps 721 mmHg 88%
    14:00 -8°C° 0 mm 3 mps 721 mmHg 88%
    15:00 -8°C° 0 mm 3 mps 721 mmHg 88%
    16:00 -8°C° 0 mm 3 mps 721 mmHg 88%
    17:00 -10°C° 0 mm 3 mps 721 mmHg 90%
    18:00 -10°C° 0 mm 2 mps 721 mmHg 91%
    19:00 -12°C° 0 mm 2 mps 721 mmHg 92%
    20:00 -13°C° 0 mm 2 mps 721 mmHg 94%
    21:00 -15°C° 0 mm 2 mps 720 mmHg 95%
    22:00 -16°C° 0 mm 2 mps 720 mmHg 96%
    23:00 -16°C° 0 mm 2 mps 720 mmHg 97%
    Show more